Location: Antioch
(38.0049°N, 121.8058°W)
Time: 03:00:08
(UTC+00:00)

Cosmos 1354 Rocket - Pass Details

Date: 21 May 2026
Orbit: 761 x 778 km, 74.0° (Epoch: 9 June)

Event Time Altitude Azimuth Distance (km) Brightness Sun altitude
Rises 05:00:58 0° 347° (NNW) 3,235 8.2 -17.7°
Reaches altitude 10° 05:03:26 10° 353° (N) 2,303 7.2 -18.0°
Maximum altitude 05:08:29 49° 68° (ENE) 975 4.4 -18.7°
Enters shadow 05:10:14 35° 119° (ESE) 1,212 4.5 -19.0°
